NKS100 KFLL-TNCM

Flight info

Callsign NKS100
Flight time N/A
Altitude 35000
Route SNAPR2 SUMAC Y421 HAGIT Y290 SLUGO ULUBA1
Aircraft A21N/M-SDE2E3FGHIRWXY/LB1

Departure

Time N/A
Airport Fort Lauderdale Hollywood International Airport (KFLL)

Arrival

Time 2026-05-07 22:16
Airport Princess Juliana International Airport (TNCM)
Time Latitude Longitude Altitude Speed Heading
2026-05-07 21:13 18.64680 -65.20286 35035 ft 470 kts 95°
2026-05-07 21:13 18.64126 -65.16891 35038 ft 470 kts 95°
2026-05-07 21:13 18.63027 -65.10171 35037 ft 470 kts 95°
2026-05-07 21:14 18.61917 -65.03405 35030 ft 470 kts 95°
2026-05-07 21:14 18.60806 -64.96649 35035 ft 470 kts 95°
2026-05-07 21:15 18.59689 -64.89864 35035 ft 471 kts 95°
2026-05-07 21:15 18.58583 -64.83170 35036 ft 471 kts 95°
2026-05-07 21:16 18.57471 -64.76455 35036 ft 471 kts 95°
2026-05-07 21:16 18.56347 -64.69680 35032 ft 471 kts 95°
2026-05-07 21:17 18.55219 -64.62881 35033 ft 470 kts 94°
2026-05-07 21:17 18.54136 -64.56083 35037 ft 470 kts 94°
2026-05-07 21:18 18.53025 -64.49286 35039 ft 471 kts 94°
2026-05-07 21:18 18.51904 -64.42544 35038 ft 471 kts 94°
2026-05-07 21:19 18.50769 -64.35764 35047 ft 471 kts 94°
2026-05-07 21:19 18.49626 -64.28963 35037 ft 472 kts 94°
2026-05-07 21:20 18.48480 -64.22163 35033 ft 472 kts 94°
2026-05-07 21:20 18.47333 -64.15372 35036 ft 472 kts 94°
2026-05-07 21:21 18.46195 -64.08652 35032 ft 472 kts 94°
2026-05-07 21:21 18.45036 -64.01823 35037 ft 473 kts 95°
2026-05-07 21:22 18.43879 -63.95017 35033 ft 474 kts 95°
2026-05-07 21:22 18.42712 -63.88173 35034 ft 474 kts 95°
2026-05-07 21:23 18.41547 -63.81353 35036 ft 474 kts 95°
2026-05-07 21:23 18.40378 -63.74526 35038 ft 474 kts 95°
2026-05-07 21:24 18.39093 -63.67701 35015 ft 480 kts 105°
2026-05-07 21:24 18.37655 -63.64521 35040 ft 488 kts 119°
2026-05-07 21:24 18.35781 -63.61651 35006 ft 482 kts 116°
2026-05-07 21:25 18.34441 -63.58522 34711 ft 462 kts 99°
2026-05-07 21:25 18.34054 -63.55287 34408 ft 441 kts 82°
2026-05-07 21:25 18.34578 -63.52184 33837 ft 427 kts 64°
2026-05-07 21:25 18.35978 -63.49490 33193 ft 415 kts 45°
2026-05-07 21:26 18.38087 -63.47487 32563 ft 405 kts 27°
2026-05-07 21:26 18.40662 -63.46377 31946 ft 398 kts
2026-05-07 21:26 18.43401 -63.46269 31344 ft 396 kts 351°
2026-05-07 21:26 18.46008 -63.47165 30758 ft 398 kts 332°
2026-05-07 21:27 18.48191 -63.48908 30189 ft 402 kts 318°
2026-05-07 21:27 18.50135 -63.51025 29524 ft 402 kts 315°
2026-05-07 21:27 18.52028 -63.53195 28858 ft 401 kts 315°
2026-05-07 21:27 18.53901 -63.55356 28222 ft 399 kts 315°
2026-05-07 21:28 18.55747 -63.57489 27605 ft 398 kts 315°
2026-05-07 21:28 18.57613 -63.59647 26986 ft 397 kts 315°
2026-05-07 21:28 18.59477 -63.61802 26381 ft 397 kts 315°
2026-05-07 21:28 18.61330 -63.63947 25784 ft 396 kts 315°
2026-05-07 21:29 18.63142 -63.66044 25214 ft 395 kts 315°
2026-05-07 21:29 18.64996 -63.68193 24644 ft 394 kts 315°
2026-05-07 21:29 18.66865 -63.70359 24079 ft 393 kts 315°
2026-05-07 21:29 18.68705 -63.72492 23516 ft 392 kts 315°
2026-05-07 21:30 18.70534 -63.74609 22867 ft 391 kts 315°
2026-05-07 21:30 18.72271 -63.76608 22268 ft 390 kts 315°
2026-05-07 21:30 18.74152 -63.78764 21631 ft 389 kts 315°
2026-05-07 21:30 18.75955 -63.80830 21031 ft 387 kts 315°
2026-05-07 21:31 18.77782 -63.82954 20413 ft 387 kts 310°
2026-05-07 21:31 18.79084 -63.85421 19855 ft 390 kts 290°
2026-05-07 21:31 18.79550 -63.88237 19266 ft 392 kts 271°
2026-05-07 21:31 18.79112 -63.91073 18702 ft 393 kts 252°
2026-05-07 21:32 18.77820 -63.93602 18113 ft 394 kts 232°
2026-05-07 21:32 18.75874 -63.95510 17494 ft 394 kts 214°
2026-05-07 21:32 18.73350 -63.96695 16861 ft 393 kts 194°
2026-05-07 21:32 18.70693 -63.96939 16256 ft 391 kts 175°
2026-05-07 21:33 18.68046 -63.96239 15633 ft 388 kts 155°
2026-05-07 21:33 18.65854 -63.94725 15089 ft 384 kts 136°
2026-05-07 21:33 18.64104 -63.92628 14497 ft 381 kts 127°
2026-05-07 21:33 18.62522 -63.90418 13925 ft 378 kts 126°
2026-05-07 21:34 18.60991 -63.88236 13318 ft 376 kts 126°
2026-05-07 21:34 18.59434 -63.86016 12682 ft 373 kts 126°
2026-05-07 21:34 18.57892 -63.83822 12070 ft 370 kts 126°
2026-05-07 21:34 18.56362 -63.81652 11470 ft 367 kts 126°
2026-05-07 21:35 18.54832 -63.79495 10873 ft 364 kts 126°
2026-05-07 21:35 18.53382 -63.77451 10313 ft 361 kts 125°
2026-05-07 21:35 18.51845 -63.75310 9711 ft 358 kts 126°
2026-05-07 21:35 18.50352 -63.73248 9079 ft 354 kts 126°
2026-05-07 21:36 18.48868 -63.71199 8464 ft 350 kts 125°
2026-05-07 21:36 18.47387 -63.69169 7856 ft 345 kts 126°
2026-05-07 21:36 18.45962 -63.67194 7258 ft 341 kts 126°
2026-05-07 21:36 18.44380 -63.65344 6685 ft 340 kts 141°
2026-05-07 21:37 18.43023 -63.64487 6264 ft 333 kts 154°
2026-05-07 21:37 18.40393 -63.63089 5441 ft 310 kts 136°
2026-05-07 21:37 18.38980 -63.61531 4881 ft 296 kts 130°
2026-05-07 21:37 18.37586 -63.59949 4541 ft 277 kts 132°
2026-05-07 21:38 18.36248 -63.58559 4251 ft 267 kts 134°
2026-05-07 21:38 18.34874 -63.57251 4314 ft 266 kts 136°
2026-05-07 21:38 18.33466 -63.55982 4448 ft 269 kts 138°
2026-05-07 21:38 18.32044 -63.54750 4464 ft 268 kts 138°
2026-05-07 21:39 18.30591 -63.53520 4482 ft 268 kts 138°
2026-05-07 21:39 18.29130 -63.52298 4484 ft 269 kts 139°
2026-05-07 21:39 18.27662 -63.51078 4385 ft 268 kts 139°
2026-05-07 21:39 18.26671 -63.50259 4296 ft 267 kts 139°
2026-05-07 21:40 18.24736 -63.48661 4131 ft 268 kts 139°
2026-05-07 21:40 18.23765 -63.47860 4051 ft 267 kts 139°
2026-05-07 21:40 18.22308 -63.46660 3932 ft 267 kts 139°
2026-05-07 21:40 18.20845 -63.45454 3811 ft 267 kts 139°
2026-05-07 21:41 18.19358 -63.44231 3686 ft 266 kts 139°
2026-05-07 21:41 18.17935 -63.43061 3566 ft 264 kts 139°
2026-05-07 21:41 18.16480 -63.41864 3445 ft 266 kts 140°
2026-05-07 21:41 18.15028 -63.40669 3332 ft 264 kts 140°
2026-05-07 21:42 18.13623 -63.39515 3190 ft 250 kts 139°
2026-05-07 21:42 18.12293 -63.38426 3059 ft 238 kts 139°
2026-05-07 21:42 18.11038 -63.37395 2971 ft 223 kts 139°
2026-05-07 21:42 18.09837 -63.36408 2846 ft 219 kts 139°
2026-05-07 21:43 18.08639 -63.35422 2718 ft 218 kts 139°
2026-05-07 21:43 18.07459 -63.34450 2618 ft 217 kts 139°
2026-05-07 21:43 18.06267 -63.33470 2599 ft 217 kts 139°
2026-05-07 21:43 18.05078 -63.32493 2585 ft 218 kts 139°
2026-05-07 21:44 18.03881 -63.31511 2592 ft 218 kts 138°
2026-05-07 21:44 18.02745 -63.30466 2590 ft 216 kts 129°
2026-05-07 21:44 18.01907 -63.29183 2589 ft 211 kts 108°
2026-05-07 21:44 18.01710 -63.27689 2608 ft 208 kts 86°
2026-05-07 21:45 18.01864 -63.26177 2580 ft 208 kts 81°
2026-05-07 21:45 18.02085 -63.24675 2415 ft 209 kts 80°
2026-05-07 21:45 18.02315 -63.23177 2112 ft 207 kts 81°
2026-05-07 21:45 18.02538 -63.21687 1838 ft 207 kts 81°
2026-05-07 21:46 18.02758 -63.20197 1555 ft 206 kts 82°
2026-05-07 21:46 18.02973 -63.18711 1285 ft 205 kts 81°
2026-05-07 21:46 18.03185 -63.17236 1008 ft 205 kts 81°
2026-05-07 21:46 18.03227 -63.16945 957 ft 205 kts 81°
2026-05-07 21:48 18.03298 -63.16449 897 ft 204 kts 81°
2026-05-07 21:48 18.03510 -63.15030 712 ft 184 kts 79°
2026-05-07 21:48 18.03599 -63.14493 628 ft 174 kts 80°
2026-05-07 21:49 18.03702 -63.13705 468 ft 162 kts 84°
2026-05-07 21:49 18.03858 -63.12594 185 ft 147 kts 79°
2026-05-07 21:49 18.03995 -63.11595 35 ft 132 kts 79°
2026-05-07 21:50 18.04125 -63.10696 27 ft 121 kts 85°
2026-05-07 21:50 18.04242 -63.09761 454 ft 144 kts 86°
2026-05-07 21:50 18.04116 -63.08694 1108 ft 155 kts 111°
2026-05-07 21:50 18.03425 -63.07797 1839 ft 169 kts 148°
2026-05-07 21:51 18.02286 -63.07411 2450 ft 188 kts 173°
2026-05-07 21:51 18.00958 -63.07618 3169 ft 197 kts 207°
2026-05-07 21:51 17.99862 -63.08485 3986 ft 201 kts 232°
2026-05-07 21:51 17.99060 -63.09755 4473 ft 221 kts 246°
2026-05-07 21:52 17.98379 -63.11309 4631 ft 243 kts 249°
2026-05-07 21:52 17.97773 -63.12970 4492 ft 242 kts 252°
2026-05-07 21:52 17.97228 -63.14685 4301 ft 254 kts 254°
2026-05-07 21:52 17.96750 -63.16496 4050 ft 258 kts 257°
2026-05-07 21:53 17.96321 -63.18327 3996 ft 258 kts 258°
2026-05-07 21:53 17.95897 -63.20153 3997 ft 257 kts 258°
2026-05-07 21:53 17.95482 -63.21947 3995 ft 257 kts 258°
2026-05-07 21:53 17.95055 -63.23777 3997 ft 259 kts 258°
2026-05-07 21:54 17.94624 -63.25615 3996 ft 259 kts 258°
2026-05-07 21:54 17.94187 -63.27482 3676 ft 262 kts 258°
2026-05-07 21:54 17.94033 -63.29349 3310 ft 252 kts 282°
2026-05-07 21:54 17.94712 -63.30958 2889 ft 242 kts 314°
2026-05-07 21:55 17.96048 -63.31897 2639 ft 224 kts 345°
2026-05-07 21:55 17.97493 -63.32201 2576 ft 201 kts 352°
2026-05-07 21:55 17.98656 -63.32807 2546 ft 179 kts 316°
2026-05-07 21:55 17.99456 -63.33773 2580 ft 175 kts 326°
2026-05-07 21:56 18.00613 -63.34142 2608 ft 179 kts
2026-05-07 21:56 18.01726 -63.33642 2601 ft 176 kts 47°
2026-05-07 21:56 18.02262 -63.32525 2586 ft 175 kts 85°
2026-05-07 21:56 18.02074 -63.31249 2603 ft 180 kts 106°
2026-05-07 21:57 18.01674 -63.29995 2596 ft 182 kts 104°
2026-05-07 21:57 18.01554 -63.28689 2550 ft 179 kts 87°
2026-05-07 21:57 18.01676 -63.27374 2096 ft 188 kts 83°
2026-05-07 21:57 18.01871 -63.25983 1770 ft 190 kts 82°
2026-05-07 21:58 18.02063 -63.24696 1704 ft 169 kts 82°
2026-05-07 21:58 18.02238 -63.23544 1698 ft 155 kts 82°
2026-05-07 21:58 18.02405 -63.22426 1699 ft 155 kts 81°
2026-05-07 21:58 18.02570 -63.21315 1701 ft 154 kts 83°
2026-05-07 21:59 18.02732 -63.20199 1700 ft 154 kts 82°
2026-05-07 21:59 18.02892 -63.19083 1697 ft 155 kts 82°
2026-05-07 21:59 18.03052 -63.17966 1698 ft 154 kts 82°
2026-05-07 21:59 18.03212 -63.16848 1700 ft 156 kts 82°
2026-05-07 22:00 18.03369 -63.15666 1186 ft 167 kts 82°
2026-05-07 22:00 18.03590 -63.14473 681 ft 167 kts 81°
2026-05-07 22:00 18.03765 -63.13294 328 ft 157 kts 81°
2026-05-07 22:00 18.03910 -63.12188 142 ft 154 kts 82°
2026-05-07 22:01 18.04065 -63.11114 28 ft 144 kts 76°
2026-05-07 22:01 18.04166 -63.10226 524 ft 135 kts 90°
2026-05-07 22:01 18.03713 -63.09271 854 ft 178 kts 133°
2026-05-07 22:01 18.02598 -63.08825 1926 ft 156 kts 186°
2026-05-07 22:02 18.01729 -63.09479 2664 ft 178 kts 239°
2026-05-07 22:02 18.01108 -63.10844 2663 ft 227 kts 248°
2026-05-07 22:02 18.00574 -63.12546 2311 ft 267 kts 255°
2026-05-07 22:02 18.00053 -63.14481 1774 ft 276 kts 251°
2026-05-07 22:03 17.99439 -63.16324 1480 ft 268 kts 249°
2026-05-07 22:03 17.98807 -63.18102 1348 ft 249 kts 250°
2026-05-07 22:03 17.98208 -63.19797 1657 ft 247 kts 249°
2026-05-07 22:03 17.97633 -63.21426 2348 ft 229 kts 250°
2026-05-07 22:04 17.97089 -63.22968 2657 ft 224 kts 250°
2026-05-07 22:04 17.96551 -63.24494 2598 ft 224 kts 250°
2026-05-07 22:04 17.96011 -63.26028 2497 ft 224 kts 249°
2026-05-07 22:04 17.95528 -63.27581 2488 ft 224 kts 261°
2026-05-07 22:05 17.95717 -63.29171 2490 ft 219 kts 296°
2026-05-07 22:05 17.96671 -63.30358 2495 ft 213 kts 327°
2026-05-07 22:05 17.98001 -63.31010 2499 ft 210 kts 345°
2026-05-07 22:05 17.99421 -63.31333 2490 ft 210 kts
2026-05-07 22:06 18.00704 -63.30895 2498 ft 180 kts 40°
2026-05-07 22:06 18.01396 -63.29942 2476 ft 153 kts 66°
2026-05-07 22:06 18.01678 -63.28939 2490 ft 142 kts 78°
2026-05-07 22:06 18.01852 -63.27862 2424 ft 154 kts 80°
2026-05-07 22:07 18.02022 -63.26749 2227 ft 155 kts 80°
2026-05-07 22:07 18.02193 -63.25619 2038 ft 156 kts 80°
2026-05-07 22:07 18.02368 -63.24504 1842 ft 154 kts 81°
2026-05-07 22:07 18.02549 -63.23398 1656 ft 153 kts 80°
2026-05-07 22:08 18.02721 -63.22287 1599 ft 154 kts 82°
2026-05-07 22:08 18.02906 -63.21192 1514 ft 154 kts 81°
2026-05-07 22:08 18.03009 -63.20073 1300 ft 156 kts 90°
2026-05-07 22:08 18.02965 -63.18938 1095 ft 154 kts 91°
2026-05-07 22:09 18.03030 -63.17815 1003 ft 154 kts 82°
2026-05-07 22:09 18.03210 -63.16704 975 ft 156 kts 79°
2026-05-07 22:09 18.03428 -63.15580 844 ft 157 kts 78°
2026-05-07 22:09 18.03481 -63.15295 798 ft 156 kts 78°
2026-05-07 22:10 18.03632 -63.14173 575 ft 155 kts 85°
2026-05-07 22:10 18.03769 -63.13076 383 ft 141 kts 74°
2026-05-07 22:11 18.03931 -63.12044 301 ft 154 kts 83°
2026-05-07 22:11 18.04081 -63.10979 28 ft 146 kts 82°
2026-05-07 22:11 18.04191 -63.10096 78 ft 122 kts 83°
2026-05-07 22:11 18.04085 -63.09191 593 ft 145 kts 118°
2026-05-07 22:12 18.03056 -63.08673 904 ft 190 kts 180°
2026-05-07 22:12 18.01815 -63.09287 1197 ft 227 kts 220°
2026-05-07 22:12 18.00965 -63.10841 1110 ft 271 kts 249°
2026-05-07 22:12 18.00460 -63.12847 960 ft 302 kts 253°
2026-05-07 22:13 17.99988 -63.14966 894 ft 282 kts 256°
2026-05-07 22:13 17.99644 -63.16795 1082 ft 246 kts 259°
2026-05-07 22:13 17.99455 -63.18489 1271 ft 215 kts 278°
2026-05-07 22:13 18.00172 -63.19832 1232 ft 204 kts 327°
2026-05-07 22:14 18.01384 -63.20082 1022 ft 165 kts 21°
2026-05-07 22:14 18.02188 -63.19421 838 ft 137 kts 55°
2026-05-07 22:14 18.02620 -63.18400 814 ft 169 kts 69°
2026-05-07 22:14 18.03037 -63.17199 930 ft 168 kts 71°
2026-05-07 22:15 18.03339 -63.16107 825 ft 145 kts 82°
2026-05-07 22:15 18.03465 -63.15073 579 ft 148 kts 79°
2026-05-07 22:15 18.03654 -63.13994 393 ft 150 kts 80°
2026-05-07 22:15 18.03794 -63.12934 225 ft 147 kts 78°
2026-05-07 22:16 18.03943 -63.11927 48 ft 142 kts 78°
2026-05-07 22:16 18.04064 -63.11110 26 ft 47 kts 84°
2026-05-07 22:16 18.04069 -63.11067 25 ft 0 kts 83°